sat.trackr.live / text

‹ back to catalog

STARLINK-4127

NORAD 53258 · 2022-086S

PAYLOAD ACTIVE UNKNOWN

§ Identity

Operator
Country
US
Launch date
2022-07-24
Launch site
AFETR
Launch vehicle
Mass (kg)
RCS (m²)

Purposes: comms

External: N2YO · Heavens-Above · Gunter

§ Orbital elements

Epoch: 2026-09-20T00:31:25.595328Z

Period
94.01 min
Inclination
53.1576°
Eccentricity
0.0000729
Mean motion
15.31712196 rev/d
Perigee alt
470.2 km
Apogee alt
471.2 km
Semi-major
6,848.8 km
B*
3.5513e-4
RAAN
36.0256°
Arg perigee
76.3257°
Mean anomaly
283.7825°
Rev number
23,047

§ Raw data

STARLINK-41271 53258U 22086S   26263.02182402  .00010675  00000+0  35513-3 0  99972 53258  53.1576  36.0256 0000729  76.3257 283.7825 15.31712196230479

JSON: /api/v1/satellites/53258 · /tle

For live sub-satellite position, see the globe view (requires WebGL).

§ Visibility from observer

Set your observer location to see the next 7 days of passes ≥ 10°. The values pass through the URL so the page stays shareable.

No JS? Fill the form by hand. The geolocation button needs JavaScript.